Weather Roundup
Issued by NWS

Home | Current Version | Previous Version | Graphics & Text | Print | Product List | Glossary Off
Versions: 1 2 3 4 5 6 7 8 9 10 11 12 13 14 15 16 17 18 19 20 21 22 23 24 25 26 27 28 29 30 31 32 33 34 35 36 37 38 39 40 41 42 43 44 45 46 47 48 49 50

034
NZUS93 KARX 270610
HRRWXR

CURRENT HOURLY OBSERVATIONS ACROSS
MUCH OF THE UPPER MISSISSIPPI VALLEY
NATIONAL WEATHER SERVICE LA CROSSE WI
100 AM CDT SUN MAY 27 2018


...SOUTHEAST MINNESOTA...


CITY           SKY/WX    TMP DP  RH WIND       PRES   REMARKS
ROCHESTER      FAIR      71  62  73 S5        29.79S
ROCHESTER/MAYO FAIR      73  62  67 SE3       29.79S
WINONA         FAIR      70  66  88 NW5       29.77S
AUSTIN         FAIR      66  59  77 CALM      29.79S
ALBERT LEA     FAIR      66  59  77 CALM        N/A
DODGE CENTER   FAIR      73  57  56 CALM      29.79F
PRESTON        FAIR      73  63  70 CALM      29.80S
OWATONNA       FAIR      64  61  88 CALM      29.78F
FARIBAULT      FAIR      66  63  88 CALM      29.78S
$$

...ELSEWHERE IN MINNESOTA...


CITY           SKY/WX    TMP DP  RH WIND       PRES   REMARKS
MINNEAPOLIS    FAIR      76  60  57 CALM      29.76R
INTNL FALLS    FAIR      56  55  97 CALM      29.75S
DULUTH         FAIR      57  54  89 CALM      29.79R
RED WING       FAIR      66  57  72 CALM      29.75S
REDWOOD FALLS  CLEAR     71  59  65 CALM      29.76S
MANKATO        FAIR      74  63  68 E3        29.78R
WORTHINGTON    CLEAR     70  56  61 CALM      29.82S
FAIRMONT       CLEAR     68  55  63 CALM      29.79S
$$

...SOUTHWEST WISCONSIN...


CITY           SKY/WX    TMP DP  RH WIND       PRES   REMARKS
LA CROSSE      FAIR      73  67  81 SE3       29.76S
PRAIRIE DU CHI FAIR      68  65  90 SE3       29.78S
BOSCOBEL       FAIR      66  65  96 CALM      29.79  FOG
LONE ROCK      FAIR      67  66  97 CALM      29.79R
PLATTEVILLE    FAIR      74  65  75 S7        29.82R
FORT MC COY    FAIR      62  60  95 CALM      29.79S
CAMP DOUGLAS   FAIR      72  65  78 CALM      29.78S
MAUSTON-NEW LI FAIR      80  64  57 SW8       29.78S
VIROQUA        FAIR      77  63  61 S6        29.81S
WIS DELLS      FAIR      69  62  78 CALM      29.80R
$$

...ELSEWHERE IN WISCONSIN...


CITY           SKY/WX    TMP DP  RH WIND       PRES   REMARKS
MILWAUKEE      FAIR      69  59  70 S6        29.80S
MADISON        FAIR      67  63  87 CALM      29.79S
GREEN BAY      LGT RAIN  64  58  80 SE9       29.75F
EAU CLAIRE     FAIR      66  61  84 SW3       29.76R
BLACK RVR FLS  FAIR      61  61 100 CALM      29.77S
MEDFORD        FAIR      64  59  83 CALM      29.79S
WAUSAU         NOT AVBL
WIS RAPIDS     FAIR      69  61  75 SW5       29.78S
MARSHFIELD     FAIR      70  62  76 W5        29.78R
RICE LAKE      FAIR      63  60  88 CALM      29.79S
$$

...NORTHEAST IOWA...


CITY           SKY/WX    TMP DP  RH WIND       PRES   REMARKS
WATERLOO       FAIR      72  68  87 S5        29.77S
DUBUQUE        FAIR      71  63  75 SW3       29.82R
DECORAH        FAIR      75  68  78 S3        29.78F
MASON CITY     CLEAR     68  58  70 CALM      29.80R
CHARLES CITY   FAIR      72  66  83 S6        29.79S
OELWEIN        FAIR      73  68  83 SE7       29.80S
$$

...ELSEWHERE IN IOWA...


CITY           SKY/WX    TMP DP  RH WIND       PRES   REMARKS
DES MOINES     CLEAR     78  66  66 SW5       29.77S
IOWA CITY      FAIR      76  70  82 SE3       29.80S
FORT DODGE     CLEAR     67  61  81 CALM      29.79S
MARSHALLTOWN   CLEAR     74  69  85 SE3       29.78S
CEDAR RAPIDS   FAIR      74  69  85 S5        29.79S
$$

...NORTHERN ILLINOIS...


CITY           SKY/WX    TMP DP  RH WIND       PRES   REMARKS
CHICAGO-OHARE  FAIR      75  58  55 CALM      29.80F
CHICAGO-MIDWAY FAIR      77  62  59 S5        29.81S
MOLINE         FAIR      71  68  90 CALM      29.80S
ROCKFORD       FAIR      69  62  78 CALM      29.82S
PEORIA         FAIR      75  71  87 CALM      29.82F
$$

NOTE: "FAIR" INDICATES FEW OR NO CLOUDS BELOW 12,000 FEET WITH NO
SIGNIFICANT WEATHER AND/OR OBSTRUCTIONS TO VISIBILITY. WIND
SPEEDS ARE IN MILES-PER-HOUR.




USA.gov is the U.S. government's official web portal to all federal, state and local government web resources and services.